Tracking 19827 objects as of 22-Aug-2019
HD Live streaming from Space Station
objects crossing your sky now

SL-16 DEB

Track SL-16 DEB now!
10-day predictions


NORAD ID: 26968
Int'l Code: 1993-016AJ
Perigee: 787.0 km
Apogee: 799.1 km
Inclination: 71.0 °
Period: 100.6 minutes
Semi major axis: 7164 km
RCS: 0.0506 m2 (small)
Launch date: March 26, 1993
Source: Commonwealth of Independent States (former USSR) (CIS)
Launch site: TYURATAM MISSILE AND SPACE COMPLEX (TTMTR)

Note: This is SATELLITE DEBRIS
aabbcc
Your satellite tracking list
Your tracking list is empty




NASA's NSSDC Master Catalog

Two Line Element Set (TLE):
1 26968U 93016AJ  19233.53217187 +.00000190 +00000-0 +89699-4 0  9997
2 26968 070.9984 274.7662 0008476 199.6146 271.1303 14.31741303371730
Source of the keplerian elements: AFSPC